Regional Weather Roundup
Issued by NWS Charleston, WV

Home | Current Version | Previous Version | Graphics & Text | Print | Product List | Glossary On
Versions: 1 2 3 4 5 6 7 8 9 10 11 12 13 14 15 16 17 18 19 20 21 22 23 24 25 26 27 28 29 30 31 32 33 34 35 36 37 38 39 40 41 42 43 44 45 46 47 48 49 50
000
ASUS41 KRLX 202010
RWRRLX
West Virginia Regional Weather Roundup
National Weather Service Charleston WV
400 PM EDT WED SEP 20 2017

Note: "fair" indicates few or no clouds below 12,000 feet with no
significant weather and/or obstructions to visibility.

WVZ003-202100-
Northern Panhandle of West Virginia

CITY           SKY/WX    TMP DP  RH WIND       PRES   REMARKS
WHEELING       CLOUDY    78  64  61 CALM      30.01F
$$

WVZ009-202100-
Northwest West Virginia

CITY           SKY/WX    TMP DP  RH WIND       PRES   REMARKS
PARKERSBURG    MOSUNNY   81  67  62 NW8       30.03F
$$

WVZ006-202100-
Western West Virginia

CITY           SKY/WX    TMP DP  RH WIND       PRES   REMARKS
HUNTINGTON     PTSUNNY   85  64  49 VRB3      30.01F
$$

WVZ015-202100-
West Central West Virginia

CITY           SKY/WX    TMP DP  RH WIND       PRES   REMARKS
CHARLESTON     MOSUNNY   84  63  49 W10       30.00F
$$

WVZ022-031-202100-
North Central West Virginia

CITY           SKY/WX    TMP DP  RH WIND       PRES   REMARKS
CLARKSBURG     MOSUNNY   81  62  52 NW6       30.02S
MORGANTOWN     CLOUDY    80  64  58 N6        30.03F
$$

WVZ025-035-042-045-202100-
Southern West Virginia

CITY           SKY/WX    TMP DP  RH WIND       PRES   REMARKS
BECKLEY        PTSUNNY   73  63  70 E7        30.08F
LOGAN            N/A     81  63  54 VRB7      30.05S
BLUEFIELD      MOSUNNY   77  58  51 NW8G18    30.10F
LEWISBURG      SUNNY     77  59  54 NW8       30.06F
$$

WVZ047-202100-
Northern Mountains of West Virginia

CITY           SKY/WX    TMP DP  RH WIND       PRES   REMARKS
ELKINS         MOSUNNY   80  60  50 CALM      30.06F
$$

WVZ052-202100-
Eastern Panhandle of West Virginia

CITY           SKY/WX    TMP DP  RH WIND       PRES   REMARKS
MARTINSBURG    SUNNY     87  54  32 N7        29.95F
PETERSBURG     CLOUDY    84  67  57 E6        29.98S
$$



USA.gov is the U.S. government's official web portal to all federal, state and local government web resources and services.